This demonstration page uses our WeatherBlox Daily Observations layout. Learn more.

Left ArrowRight Arrow

44.8408, -93.29828

Hourly Observations for September 24, 2020

Temp ( °F °C ) Dew Point ( °F °C ) Humidity (%) Winds ( mph kmh ) Pressure ( in mb ) Visibility ( mi km ) Precip ( " mm )
12:53 am 00:53 Cloudy 72 22.2 58 14.4 61 61 SSW 8 13 29.83 1010 10 16 0.00 0.00
1:53 am 01:53 Cloudy 69 20.6 58 14.4 68 68 N 5 7 29.85 1011 10 16 0.00 0.00
2:53 am 02:53 Cloudy with Light Rain 68 20 59 15 73 73 NE 3 6 29.85 1011 10 16 0.00 0.00
3:53 am 03:53 Cloudy with Light Rain 65 18.3 62 16.7 90 90 NE 10 17 29.84 1011 7 11 0.01 0.25
4:53 am 04:53 Cloudy 65 18.3 58 14.4 78 78 ENE 15 24 29.86 1011 10 16 0.00 0.00
5:53 am 05:53 Cloudy 63 17.2 56 13.3 78 78 ENE 16 26 29.85 1011 10 16 0.00 0.00
6:53 am 06:53 Cloudy with Light Rain 62 16.7 56 13.3 80 80 ENE 13 20 29.87 1011 8 13 0.02 0.51
7:53 am 07:53 Cloudy with Light Rain 61 16.1 57 13.9 87 87 SE 9 15 29.86 1011 10 16 0.02 0.51
8:53 am 08:53 Mostly Cloudy 61 16.1 57 13.9 87 87 SSE 16 26 29.80 1009 10 16 0.00 0.00
9:22 am 09:22 Mostly Cloudy 64 17.8 57 13.9 78 78 NNW 17 28 29.83 1010 10 16 0.00 0.00
9:53 am 09:53 Mostly Cloudy 64 17.8 57 13.9 78 78 N 10 17 29.85 1011 10 16 0.00 0.00
10:53 am 10:53 Mostly Sunny 68 20 57 13.9 68 68 NNE 9 15 29.85 1011 10 16 0.00 0.00
11:53 am 11:53 Mostly Sunny 71 21.7 56 13.3 59 59 E 3 6 29.85 1011 10 16 0.00 0.00
12:53 pm 12:53 Mostly Sunny 74 23.3 57 13.9 56 56 VRB 6 9 29.84 1010 10 16 0.00 0.00
1:53 pm 13:53 Mostly Cloudy 74 23.3 59 15 60 60 NE 9 15 29.83 1010 10 16 0.00 0.00
2:53 pm 14:53 Partly Cloudy 74 23.3 58 14.4 57 57 VRB 5 7 29.83 1010 10 16 0.00 0.00
3:53 pm 15:53 Partly Cloudy 74 23.3 57 13.9 56 56 Calm 29.82 1010 10 16 0.00 0.00
4:53 pm 16:53 Partly Cloudy 75 23.9 56 13.3 52 52 ENE 8 13 29.81 1010 10 16 0.00 0.00
5:53 pm 17:53 Partly Cloudy 74 23.3 57 13.9 56 56 E 6 9 29.82 1010 10 16 0.00 0.00
6:53 pm 18:53 Partly Cloudy 72 22.2 59 15 64 64 N 7 11 29.83 1010 10 16 0.00 0.00
7:53 pm 19:53 Partly Cloudy 69 20.6 59 15 70 70 NE 6 9 29.82 1010 10 16 0.00 0.00
8:53 pm 20:53 Partly Cloudy 67 19.4 60 15.6 79 79 ENE 7 11 29.83 1010 10 16 0.00 0.00
9:53 pm 21:53 Partly Cloudy 65 18.3 59 15 81 81 E 5 7 29.83 1010 10 16 0.00 0.00
10:53 pm 22:53 Partly Cloudy 64 17.8 60 15.6 87 87 E 5 7 29.83 1010 10 16 0.00 0.00
11:53 pm 23:53 Partly Cloudy 63 17.2 60 15.6 90 90 SE 7 11 29.82 1010 10 16 0.00 0.00

Powered by AerisWeather